When you browse on this site, cookies collect data to enhance your experience and personalize the content and advertising you see.
Visit our Privacy Policy to learn more. By continuing to use the site, you agree to this use of cookies and data.
  • In Netherlands
  • List of Countries
  • For 7 days
  • Water Temperature
  • Satellite Maps
  • Weather Map
  • Weather Widgets
  • user-avatar
    Login

    Hourly Weather Ozorków

    Today, 26 June, Wednesday

    Time Temperature Precipitation Wind Pressure Humidity
    00:00 +25°C° 0 mm 3 mps 756 mmHg 82%
    01:00 +25°C° 0 mm 3 mps 756 mmHg 78%
    02:00 +24°C° 0 mm 3 mps 756 mmHg 81%
    03:00 +24°C° 0 mm 3 mps 755 mmHg 84%
    04:00 +22°C° 0 mm 3 mps 755 mmHg 87%
    05:00 +25°C° 0 mm 3 mps 755 mmHg 82%
    06:00 +27°C° 0 mm 3 mps 755 mmHg 77%
    07:00 +28°C° 0 mm 3 mps 755 mmHg 71%
    08:00 +30°C° 0 mm 3 mps 755 mmHg 65%
    09:00 +32°C° 0 mm 4 mps 755 mmHg 58%
    10:00 +33°C° 0 mm 4 mps 754 mmHg 51%
    11:00 +34°C° 0 mm 4 mps 754 mmHg 49%
    12:00 +35°C° 0 mm 5 mps 754 mmHg 47%
    13:00 +35°C° 0 mm 5 mps 754 mmHg 46%
    14:00 +35°C° 0 mm 5 mps 753 mmHg 47%
    15:00 +35°C° 0 mm 5 mps 752 mmHg 49%
    16:00 +35°C° 0 mm 5 mps 752 mmHg 50%
    17:00 +34°C° 0 mm 4 mps 752 mmHg 55%
    18:00 +33°C° 0 mm 3 mps 751 mmHg 60%
    19:00 +31°C° 0 mm 3 mps 751 mmHg 65%
    20:00 +30°C° 0.1 mm 3 mps 751 mmHg 67%
    21:00 +29°C° 0.1 mm 3 mps 751 mmHg 68%
    22:00 +28°C° 0.1 mm 3 mps 751 mmHg 69%
    23:00 +26°C° 0.9 mm 4 mps 751 mmHg 77%

    Tomorrow, 27 June, Thursday

    Time Temperature Precipitation Wind Pressure Humidity
    00:00 +25°C° 0.9 mm 4 mps 751 mmHg 84%
    01:00 +22°C° 0.9 mm 5 mps 751 mmHg 91%
    02:00 +21°C° 0 mm 5 mps 751 mmHg 91%
    03:00 +20°C° 0 mm 5 mps 751 mmHg 92%
    04:00 +20°C° 0 mm 5 mps 751 mmHg 92%
    05:00 +20°C° 0.1 mm 6 mps 751 mmHg 88%
    06:00 +20°C° 0.1 mm 7 mps 751 mmHg 84%
    07:00 +20°C° 0.1 mm 8 mps 751 mmHg 81%
    08:00 +20°C° 0 mm 8 mps 752 mmHg 76%
    09:00 +20°C° 0 mm 7 mps 752 mmHg 71%
    10:00 +20°C° 0 mm 7 mps 752 mmHg 66%
    11:00 +21°C° 0 mm 7 mps 752 mmHg 62%
    12:00 +22°C° 0 mm 7 mps 752 mmHg 59%
    13:00 +22°C° 0 mm 8 mps 752 mmHg 56%
    14:00 +22°C° 0 mm 7 mps 752 mmHg 58%
    15:00 +22°C° 0 mm 7 mps 751 mmHg 60%
    16:00 +22°C° 0 mm 7 mps 751 mmHg 62%
    17:00 +21°C° 0 mm 7 mps 751 mmHg 66%
    18:00 +20°C° 0 mm 6 mps 751 mmHg 70%
    19:00 +20°C° 0 mm 6 mps 751 mmHg 74%
    20:00 +19°C° 0.1 mm 5 mps 752 mmHg 79%
    21:00 +18°C° 0.1 mm 4 mps 752 mmHg 84%
    22:00 +17°C° 0.1 mm 4 mps 753 mmHg 88%
    23:00 +16°C° 0 mm 3 mps 753 mmHg 91%

    Day after tomorrow, 28 June, Friday

    Time Temperature Precipitation Wind Pressure Humidity
    00:00 +14°C° 0 mm 3 mps 753 mmHg 93%
    01:00 +13°C° 0 mm 3 mps 753 mmHg 96%
    02:00 +14°C° 0 mm 2 mps 754 mmHg 95%
    03:00 +13°C° 0 mm 2 mps 754 mmHg 95%
    04:00 +13°C° 0 mm 2 mps 754 mmHg 94%
    05:00 +14°C° 0 mm 2 mps 754 mmHg 89%
    06:00 +16°C° 0 mm 3 mps 754 mmHg 83%
    07:00 +17°C° 0 mm 3 mps 754 mmHg 78%
    08:00 +19°C° 0 mm 3 mps 754 mmHg 68%
    09:00 +20°C° 0 mm 3 mps 753 mmHg 59%
    10:00 +22°C° 0 mm 4 mps 753 mmHg 49%
    11:00 +22°C° 0 mm 4 mps 753 mmHg 50%
    12:00 +23°C° 0 mm 5 mps 753 mmHg 50%
    13:00 +23°C° 0 mm 5 mps 753 mmHg 51%
    14:00 +23°C° 0 mm 5 mps 753 mmHg 50%
    15:00 +23°C° 0 mm 5 mps 753 mmHg 49%
    16:00 +23°C° 0 mm 5 mps 753 mmHg 48%
    17:00 +22°C° 0 mm 5 mps 753 mmHg 53%
    18:00 +20°C° 0 mm 5 mps 753 mmHg 57%
    19:00 +19°C° 0 mm 5 mps 753 mmHg 61%
    20:00 +17°C° 0 mm 4 mps 754 mmHg 62%
    21:00 +15°C° 0 mm 4 mps 754 mmHg 62%
    22:00 +13°C° 0 mm 3 mps 755 mmHg 63%
    23:00 +13°C° 0 mm 3 mps 755 mmHg 65%

    29 June, Saturday

    Time Temperature Precipitation Wind Pressure Humidity
    00:00 +12°C° 0 mm 3 mps 755 mmHg 67%
    01:00 +12°C° 0 mm 2 mps 755 mmHg 69%
    02:00 +12°C° 0 mm 2 mps 755 mmHg 71%
    03:00 +12°C° 0 mm 2 mps 755 mmHg 72%
    04:00 +12°C° 0 mm 2 mps 755 mmHg 74%
    05:00 +14°C° 0 mm 2 mps 755 mmHg 70%
    06:00 +15°C° 0 mm 2 mps 755 mmHg 66%
    07:00 +17°C° 0 mm 2 mps 755 mmHg 62%
    08:00 +19°C° 0 mm 3 mps 755 mmHg 59%
    09:00 +20°C° 0 mm 3 mps 755 mmHg 55%
    10:00 +22°C° 0 mm 4 mps 755 mmHg 52%
    11:00 +23°C° 0 mm 4 mps 755 mmHg 51%
    12:00 +25°C° 0 mm 5 mps 754 mmHg 49%
    13:00 +25°C° 0 mm 5 mps 754 mmHg 48%
    14:00 +26°C° 0 mm 5 mps 754 mmHg 48%
    15:00 +26°C° 0 mm 5 mps 753 mmHg 48%
    16:00 +26°C° 0 mm 5 mps 753 mmHg 48%
    17:00 +25°C° 0 mm 4 mps 753 mmHg 53%
    18:00 +24°C° 0 mm 3 mps 753 mmHg 58%
    19:00 +23°C° 0 mm 2 mps 753 mmHg 63%
    20:00 +21°C° 0 mm 2 mps 753 mmHg 62%
    21:00 +19°C° 0 mm 2 mps 753 mmHg 61%
    22:00 +18°C° 0 mm 2 mps 753 mmHg 61%
    23:00 +18°C° 0 mm 2 mps 753 mmHg 61%

    30 June, Sunday

    Time Temperature Precipitation Wind Pressure Humidity
    00:00 +17°C° 0 mm 3 mps 753 mmHg 62%
    01:00 +17°C° 0 mm 3 mps 753 mmHg 62%
    02:00 +17°C° 0 mm 3 mps 753 mmHg 64%
    03:00 +16°C° 0 mm 3 mps 753 mmHg 66%
    04:00 +16°C° 0 mm 3 mps 752 mmHg 68%
    05:00 +18°C° 0 mm 3 mps 752 mmHg 65%
    06:00 +19°C° 0 mm 3 mps 752 mmHg 62%
    07:00 +21°C° 0 mm 3 mps 753 mmHg 60%
    08:00 +23°C° 0 mm 4 mps 752 mmHg 54%
    09:00 +26°C° 0 mm 4 mps 752 mmHg 49%
    10:00 +28°C° 0 mm 4 mps 752 mmHg 43%
    11:00 +29°C° 0 mm 4 mps 752 mmHg 42%
    12:00 +30°C° 0 mm 4 mps 751 mmHg 40%
    13:00 +32°C° 0 mm 4 mps 751 mmHg 38%
    14:00 +32°C° 0 mm 4 mps 751 mmHg 39%
    15:00 +32°C° 0 mm 5 mps 750 mmHg 40%
    16:00 +32°C° 0 mm 5 mps 750 mmHg 41%
    17:00 +30°C° 0 mm 5 mps 750 mmHg 47%
    18:00 +28°C° 0 mm 5 mps 749 mmHg 53%
    19:00 +27°C° 0 mm 5 mps 749 mmHg 58%
    20:00 +26°C° 0 mm 5 mps 749 mmHg 62%
    21:00 +25°C° 0 mm 5 mps 749 mmHg 66%
    22:00 +23°C° 0 mm 5 mps 749 mmHg 69%
    23:00 +23°C° 0 mm 6 mps 749 mmHg 71%

    1 July, Monday

    Time Temperature Precipitation Wind Pressure Humidity
    00:00 +22°C° 0 mm 6 mps 749 mmHg 73%
    01:00 +22°C° 0 mm 6 mps 749 mmHg 75%
    02:00 +21°C° 0 mm 5 mps 749 mmHg 79%
    03:00 +20°C° 0 mm 4 mps 749 mmHg 83%
    04:00 +19°C° 0 mm 3 mps 749 mmHg 86%
    05:00 +20°C° 0 mm 3 mps 749 mmHg 80%
    06:00 +21°C° 0 mm 3 mps 749 mmHg 74%
    07:00 +22°C° 0 mm 3 mps 749 mmHg 68%
    08:00 +25°C° 0 mm 3 mps 749 mmHg 65%
    09:00 +26°C° 0 mm 4 mps 749 mmHg 61%
    10:00 +27°C° 0 mm 4 mps 749 mmHg 57%
    11:00 +28°C° 0 mm 4 mps 749 mmHg 56%
    12:00 +28°C° 0 mm 4 mps 749 mmHg 54%
    13:00 +29°C° 0 mm 4 mps 748 mmHg 52%
    14:00 +29°C° 0 mm 4 mps 748 mmHg 53%
    15:00 +29°C° 0 mm 4 mps 747 mmHg 55%
    16:00 +28°C° 0 mm 3 mps 747 mmHg 56%
    17:00 +27°C° 0.1 mm 2 mps 747 mmHg 61%
    18:00 +26°C° 0.1 mm 2 mps 747 mmHg 66%
    19:00 +25°C° 0.1 mm 1 mps 746 mmHg 72%
    20:00 +24°C° 1 mm 1 mps 746 mmHg 77%
    21:00 +22°C° 1 mm 1 mps 746 mmHg 82%
    22:00 +21°C° 1 mm 1 mps 746 mmHg 88%
    23:00 +19°C° 0.2 mm 2 mps 747 mmHg 86%
    Show more